When you browse on this site, cookies collect data to enhance your experience and personalize the content and advertising you see.
Visit our Privacy Policy to learn more. By continuing to use the site, you agree to this use of cookies and data.
  • In Spain
  • List of Countries
  • For 7 days
  • Water Temperature
  • Satellite Maps
  • Weather Map
  • Weather Widgets
  • user-avatar
    Login

    Hourly Weather Sarh

    Today, 22 April, Monday

    Time Temperature Precipitation Wind Pressure Humidity
    00:00 +35°C° 0 mm 1 mps 723 mmHg 10%
    01:00 +34°C° 0 mm 1 mps 723 mmHg 10%
    02:00 +34°C° 0 mm 1 mps 723 mmHg 10%
    03:00 +33°C° 0 mm 1 mps 723 mmHg 11%
    04:00 +32°C° 0 mm 1 mps 723 mmHg 11%
    05:00 +33°C° 0 mm 1 mps 724 mmHg 11%
    06:00 +33°C° 0 mm 1 mps 724 mmHg 11%
    07:00 +35°C° 0 mm 2 mps 725 mmHg 11%
    08:00 +37°C° 0 mm 2 mps 725 mmHg 10%
    09:00 +40°C° 0 mm 3 mps 726 mmHg 9%
    10:00 +43°C° 0 mm 3 mps 726 mmHg 7%
    11:00 +44°C° 0 mm 3 mps 725 mmHg 7%
    12:00 +45°C° 0 mm 3 mps 725 mmHg 6%
    13:00 +47°C° 0 mm 3 mps 724 mmHg 5%
    14:00 +47°C° 0 mm 2 mps 723 mmHg 5%
    15:00 +47°C° 0 mm 2 mps 723 mmHg 5%
    16:00 +46°C° 0 mm 2 mps 722 mmHg 5%
    17:00 +43°C° 0 mm 2 mps 722 mmHg 6%
    18:00 +42°C° 0 mm 2 mps 722 mmHg 7%
    19:00 +40°C° 0 mm 1 mps 722 mmHg 8%
    20:00 +39°C° 0 mm 1 mps 723 mmHg 9%
    21:00 +37°C° 0 mm 1 mps 723 mmHg 9%
    22:00 +36°C° 0 mm 1 mps 724 mmHg 9%
    23:00 +36°C° 0 mm 1 mps 723 mmHg 10%

    Tomorrow, 23 April, Tuesday

    Time Temperature Precipitation Wind Pressure Humidity
    00:00 +35°C° 0 mm 1 mps 723 mmHg 10%
    01:00 +34°C° 0 mm 1 mps 723 mmHg 11%
    02:00 +33°C° 0 mm 1 mps 723 mmHg 11%
    03:00 +33°C° 0 mm 1 mps 723 mmHg 12%
    04:00 +32°C° 0 mm 2 mps 723 mmHg 12%
    05:00 +32°C° 0 mm 2 mps 723 mmHg 12%
    06:00 +34°C° 0 mm 2 mps 724 mmHg 12%
    07:00 +34°C° 0 mm 2 mps 724 mmHg 12%
    08:00 +37°C° 0 mm 3 mps 725 mmHg 11%
    09:00 +39°C° 0 mm 3 mps 725 mmHg 10%
    10:00 +43°C° 0 mm 4 mps 726 mmHg 9%
    11:00 +44°C° 0 mm 4 mps 725 mmHg 8%
    12:00 +45°C° 0 mm 3 mps 725 mmHg 7%
    13:00 +47°C° 0 mm 3 mps 724 mmHg 6%
    14:00 +47°C° 0 mm 3 mps 723 mmHg 6%
    15:00 +47°C° 0 mm 3 mps 723 mmHg 5%
    16:00 +47°C° 0 mm 2 mps 722 mmHg 5%
    17:00 +45°C° 0 mm 2 mps 722 mmHg 6%
    18:00 +42°C° 0 mm 2 mps 723 mmHg 7%
    19:00 +40°C° 0 mm 1 mps 723 mmHg 8%
    20:00 +39°C° 0 mm 1 mps 723 mmHg 8%
    21:00 +37°C° 0 mm 1 mps 724 mmHg 8%
    22:00 +36°C° 0 mm 1 mps 724 mmHg 9%
    23:00 +35°C° 0 mm 1 mps 724 mmHg 9%

    Day after tomorrow, 24 April, Wednesday

    Time Temperature Precipitation Wind Pressure Humidity
    00:00 +35°C° 0 mm 1 mps 724 mmHg 9%
    01:00 +34°C° 0 mm 1 mps 723 mmHg 10%
    02:00 +33°C° 0 mm 1 mps 723 mmHg 10%
    03:00 +30°C° 0 mm 0 mps 723 mmHg 11%
    04:00 +30°C° 0 mm 0 mps 723 mmHg 12%
    05:00 +30°C° 0 mm 0 mps 724 mmHg 11%
    06:00 +33°C° 0 mm 1 mps 724 mmHg 11%
    07:00 +34°C° 0 mm 1 mps 725 mmHg 11%
    08:00 +37°C° 0 mm 1 mps 726 mmHg 12%
    09:00 +40°C° 0 mm 2 mps 726 mmHg 13%
    10:00 +43°C° 0 mm 2 mps 727 mmHg 14%
    11:00 +45°C° 0 mm 2 mps 726 mmHg 12%
    12:00 +47°C° 0 mm 2 mps 725 mmHg 11%
    13:00 +47°C° 0 mm 1 mps 724 mmHg 9%
    14:00 +47°C° 0 mm 1 mps 724 mmHg 8%
    15:00 +46°C° 0 mm 1 mps 723 mmHg 8%
    16:00 +46°C° 0 mm 1 mps 722 mmHg 7%
    17:00 +44°C° 0 mm 1 mps 723 mmHg 7%
    18:00 +42°C° 0 mm 1 mps 723 mmHg 8%
    19:00 +40°C° 0 mm 1 mps 723 mmHg 8%
    20:00 +40°C° 0 mm 1 mps 724 mmHg 9%
    21:00 +39°C° 0 mm 1 mps 724 mmHg 9%
    22:00 +37°C° 0 mm 1 mps 725 mmHg 9%
    23:00 +36°C° 0 mm 1 mps 724 mmHg 9%

    25 April, Thursday

    Time Temperature Precipitation Wind Pressure Humidity
    00:00 +36°C° 0 mm 1 mps 724 mmHg 10%
    01:00 +35°C° 0 mm 1 mps 724 mmHg 10%
    02:00 +34°C° 0 mm 1 mps 724 mmHg 11%
    03:00 +34°C° 0 mm 1 mps 724 mmHg 12%
    04:00 +33°C° 0 mm 1 mps 724 mmHg 13%
    05:00 +33°C° 0 mm 1 mps 724 mmHg 15%
    06:00 +34°C° 0 mm 1 mps 725 mmHg 18%
    07:00 +35°C° 0 mm 1 mps 725 mmHg 21%
    08:00 +39°C° 0 mm 1 mps 726 mmHg 18%
    09:00 +42°C° 0 mm 1 mps 726 mmHg 16%
    10:00 +45°C° 0 mm 1 mps 726 mmHg 14%
    11:00 +47°C° 0 mm 1 mps 725 mmHg 12%
    12:00 +49°C° 0 mm 1 mps 725 mmHg 9%
    13:00 +48°C° 0 mm 0 mps 724 mmHg 7%
    14:00 +50°C° 0 mm 1 mps 723 mmHg 7%
    15:00 +48°C° 0 mm 1 mps 722 mmHg 7%
    16:00 +48°C° 0 mm 2 mps 721 mmHg 7%
    17:00 +46°C° 0 mm 2 mps 722 mmHg 7%
    18:00 +45°C° 0 mm 2 mps 722 mmHg 8%
    19:00 +42°C° 0 mm 2 mps 723 mmHg 8%
    20:00 +41°C° 0 mm 1 mps 723 mmHg 8%
    21:00 +40°C° 0 mm 1 mps 723 mmHg 8%
    22:00 +39°C° 0 mm 1 mps 724 mmHg 8%
    23:00 +37°C° 0 mm 1 mps 723 mmHg 10%

    26 April, Friday

    Time Temperature Precipitation Wind Pressure Humidity
    00:00 +36°C° 0 mm 1 mps 723 mmHg 12%
    01:00 +35°C° 0 mm 1 mps 723 mmHg 14%
    02:00 +34°C° 0 mm 1 mps 723 mmHg 16%
    03:00 +34°C° 0 mm 1 mps 723 mmHg 17%
    04:00 +33°C° 0 mm 1 mps 723 mmHg 19%
    05:00 +34°C° 0 mm 1 mps 723 mmHg 17%
    06:00 +34°C° 0 mm 1 mps 724 mmHg 16%
    07:00 +33°C° 0 mm 0 mps 725 mmHg 14%
    08:00 +39°C° 0 mm 1 mps 725 mmHg 12%
    09:00 +42°C° 0 mm 1 mps 725 mmHg 10%
    10:00 +46°C° 0 mm 1 mps 725 mmHg 8%
    11:00 +47°C° 0 mm 1 mps 724 mmHg 7%
    12:00 +49°C° 0 mm 1 mps 724 mmHg 6%
    13:00 +48°C° 0 mm 0 mps 723 mmHg 4%
    14:00 +50°C° 0 mm 1 mps 722 mmHg 4%
    15:00 +49°C° 0 mm 1 mps 721 mmHg 4%
    16:00 +48°C° 0 mm 1 mps 721 mmHg 4%
    17:00 +46°C° 0 mm 1 mps 721 mmHg 5%
    18:00 +45°C° 0 mm 2 mps 721 mmHg 5%
    19:00 +42°C° 0 mm 2 mps 722 mmHg 5%
    20:00 +41°C° 0 mm 1 mps 722 mmHg 6%
    21:00 +40°C° 0 mm 1 mps 722 mmHg 6%
    22:00 +39°C° 0 mm 1 mps 722 mmHg 6%
    23:00 +37°C° 0 mm 1 mps 722 mmHg 8%

    27 April, Saturday

    Time Temperature Precipitation Wind Pressure Humidity
    00:00 +36°C° 0 mm 1 mps 722 mmHg 10%
    01:00 +35°C° 0 mm 1 mps 722 mmHg 12%
    02:00 +34°C° 0 mm 1 mps 722 mmHg 13%
    03:00 +34°C° 0 mm 2 mps 722 mmHg 14%
    04:00 +34°C° 0 mm 2 mps 722 mmHg 15%
    05:00 +34°C° 0 mm 3 mps 723 mmHg 24%
    06:00 +34°C° 0 mm 4 mps 724 mmHg 33%
    07:00 +35°C° 0 mm 4 mps 724 mmHg 41%
    08:00 +37°C° 0 mm 4 mps 724 mmHg 38%
    09:00 +38°C° 0 mm 4 mps 725 mmHg 34%
    10:00 +41°C° 0 mm 4 mps 725 mmHg 30%
    11:00 +43°C° 0 mm 3 mps 724 mmHg 25%
    12:00 +45°C° 0 mm 3 mps 724 mmHg 20%
    13:00 +47°C° 0 mm 3 mps 723 mmHg 14%
    14:00 +47°C° 0 mm 3 mps 722 mmHg 15%
    15:00 +46°C° 0 mm 3 mps 722 mmHg 15%
    16:00 +46°C° 0 mm 2 mps 721 mmHg 15%
    17:00 +45°C° 0 mm 3 mps 722 mmHg 16%
    18:00 +44°C° 0 mm 3 mps 722 mmHg 18%
    19:00 +43°C° 0 mm 3 mps 723 mmHg 20%
    20:00 +42°C° 0 mm 3 mps 723 mmHg 21%
    21:00 +40°C° 0 mm 2 mps 723 mmHg 23%
    22:00 +39°C° 0 mm 2 mps 724 mmHg 24%
    23:00 +38°C° 0 mm 2 mps 723 mmHg 26%
    Show more